Vorticity
nan nan nan nan nan nan nan nan nan nan nan nan nan nan nan nan nan nan nan nan nan nan nan nan nan nan nan nan nan nan nan nan nan nan nan nan nan nan nan nan nan nan nan nan
nan 10 14 9 7 12 16 8 7 11 16 15 4 5 7 13 10 7 8 9 7 6 7 6 11 12 10 14 10 6 10 10 9 9 13 10 9 10 12 12 13 12 10 nan
nan 11 7 8 15 15 9 9 10 35 18 10 3 3 10 19 10 8 7 5 9 10 8 8 8 7 10 9 10 14 11 8 12 10 7 9 10 9 9 11 13 11 11 nan
nan 12 14 12 3 12 19 23 24 26 15 9 7 5 20 17 10 9 10 8 5 5 6 8 9 8 9 8 10 13 11 11 11 11 11 11 9 11 10 10 10 9 8 nan
nan 9 13 13 14 4 15 14 20 19 23 15 9 6 12 15 11 7 6 9 9 8 8 10 10 12 15 16 15 14 18 20 14 8 10 14 14 12 10 9 8 9 9 nan
nan 13 6 11 16 6 12 12 12 26 19 12 9 9 5 5 9 9 6 8 11 11 9 8 10 14 14 16 17 16 19 20 17 14 11 10 10 10 12 10 9 8 9 nan
nan 6 6 21 11 8 11 5 7 24 27 10 0 16 21 8 4 6 8 10 10 9 9 9 13 13 12 11 10 15 14 14 10 10 8 8 9 10 12 11 10 9 7 nan
nan 18 14 10 13 9 15 12 11 11 16 19 20 13 8 9 7 6 6 9 9 9 10 12 13 11 10 10 12 14 13 11 10 11 11 10 10 10 10 9 8 8 7 nan
nan 16 19 13 18 18 10 11 10 10 11 7 9 11 8 7 9 7 8 9 10 11 9 10 12 12 11 10 13 12 12 11 11 11 12 12 9 9 8 9 8 8 8 nan
nan 7 10 9 8 12 11 11 10 9 10 10 10 9 8 8 8 9 8 9 10 9 9 11 11 11 10 11 11 11 10 9 9 10 10 9 9 9 10 9 9 9 10 nan
nan 8 4 16 19 11 11 10 9 11 11 12 11 10 8 9 10 9 10 9 9 9 11 13 11 10 10 10 9 9 8 9 9 8 9 8 11 13 13 13 15 14 12 nan
nan 27 20 13 18 9 12 10 10 11 10 11 13 11 9 10 11 11 10 10 10 10 11 10 11 11 11 10 7 7 9 8 9 9 9 9 8 4 9 14 13 13 17 nan
nan 9 20 13 1 13 23 14 10 10 10 11 10 12 11 11 11 11 11 11 10 10 10 10 11 12 12 10 8 9 11 9 8 9 8 10 9 8 3 3 7 9 8 nan
nan 9 8 7 8 14 5 9 10 9 9 9 10 9 11 13 11 9 10 11 12 11 11 11 10 11 12 11 11 9 9 10 9 10 9 9 10 10 9 7 6 7 8 nan
nan 17 6 12 11 16 9 7 9 11 9 9 11 11 11 10 11 11 12 10 10 9 8 10 12 10 9 9 10 9 8 9 10 8 10 10 10 10 12 11 10 10 10 nan
nan 2 17 17 17 14 12 9 7 8 10 11 10 10 12 12 9 8 7 8 10 10 10 9 9 9 10 9 8 3 2 11 17 11 12 10 9 9 11 10 13 14 11 nan
nan 10 18 15 17 7 10 9 11 9 10 11 10 13 13 10 8 8 7 9 12 9 9 11 10 8 8 12 10 9 9 4 7 14 10 7 11 10 9 10 12 13 13 nan
nan 15 17 14 10 8 10 13 11 10 13 15 13 13 9 7 7 7 6 10 11 12 13 10 12 12 7 7 12 13 9 15 12 9 7 11 11 12 9 8 12 11 8 nan
nan 9 10 23 21 10 12 12 10 10 14 15 13 11 8 9 7 9 10 16 14 7 6 6 9 13 10 7 12 11 10 16 9 11 11 9 9 10 8 12 14 11 11 nan
nan 9 20 21 14 12 10 12 12 13 11 8 11 13 12 8 7 12 11 9 12 11 10 9 6 8 9 8 10 10 12 11 13 17 9 6 11 8 8 8 12 15 9 nan
nan 16 18 11 14 17 11 12 15 14 9 9 12 12 11 8 11 9 13 11 11 9 8 11 13 14 10 4 7 8 16 14 14 12 11 12 10 10 13 11 9 9 10 nan
nan 17 14 13 12 12 13 13 12 15 12 10 8 8 14 15 9 9 14 11 7 11 11 12 11 10 11 12 12 10 17 14 10 7 12 15 10 12 11 9 10 12 10 nan
nan 13 12 13 11 9 12 12 13 12 11 12 14 10 8 11 10 11 8 10 12 12 14 14 9 6 10 13 10 12 12 11 13 13 12 13 11 12 10 10 12 10 11 nan
nan 12 12 12 11 8 9 11 12 12 13 11 4 7 14 10 7 10 14 12 7 9 14 12 5 4 12 13 12 16 11 10 11 13 11 12 15 12 11 12 11 10 10 nan
nan 12 11 10 7 9 10 9 9 9 8 8 7 8 8 12 15 12 10 9 9 7 7 8 6 9 11 10 14 14 12 9 8 13 15 11 10 10 12 12 10 12 12 nan
nan 10 12 11 9 10 9 8 8 6 5 9 12 10 9 13 13 11 10 11 9 10 11 11 8 11 10 10 12 13 10 12 12 9 10 11 13 11 13 14 13 12 9 nan
nan nan nan nan nan nan nan nan nan nan nan nan nan nan nan nan nan nan nan nan nan nan nan nan nan nan nan nan nan nan nan nan nan nan nan nan nan nan nan nan nan nan nan nan
CAPE
1 39 75 86 50 3 0 20 25 121 101 450 320 69 7 175 2998 2849 2919 2451 2227 2133 2242 2096 1975 2124 1922 1621 876 1507 978 1249 1212 668 905 769 1131 887 734 557 441 222 30 129
48 32 41 63 67 26 1 0 20 48 237 83 0 0 0 189 2280 2455 2405 2188 2021 2463 2098 1876 1840 1715 1935 1880 1661 1445 622 1313 1217 888 784 594 956 613 693 552 397 239 172 81
109 30 31 95 74 101 13 5 13 281 323 82 119 289 103 2508 1998 1994 1940 1736 1388 1343 1251 1213 998 1130 1331 1894 1730 1929 1019 1141 720 993 800 634 453 581 605 386 232 136 0 0
158 241 89 115 190 150 162 38 28 1207 394 47 1 425 439 2542 2118 1833 1346 1056 949 762 766 517 328 341 363 437 675 1701 1347 879 703 742 488 500 517 263 278 125 31 6 3 1
160 113 44 273 170 30 282 31 79 684 1015 147 654 875 1835 1726 1514 1056 761 510 244 65 22 7 7 4 6 192 286 707 1382 1140 546 273 318 111 207 170 42 6 0 0 0 0
295 85 32 163 209 311 301 72 935 864 1582 1392 1192 1151 1024 739 518 257 127 69 4 2 2 3 5 5 2 5 2 67 5 35 0 2 4 5 3 0 0 0 0 0 1 0
3 39 88 435 408 277 19 640 1006 1457 1387 1532 1164 1083 996 359 203 62 27 2 3 1 7 6 5 3 3 3 2 3 2 2 3 2 4 5 2 0 0 0 1 3 5 2
161 123 60 299 100 49 1461 1112 1462 1349 1003 601 337 310 192 102 33 4 4 2 1 5 7 7 6 3 3 2 3 3 3 5 7 3 7 2 1 2 2 2 2 2 1 1
647 719 958 1454 1468 1414 1204 1203 1498 1226 660 401 117 22 3 3 3 1 4 5 6 5 6 6 6 4 2 5 3 3 2 4 4 6 7 7 2 2 2 2 1 2 2 1
368 330 747 693 935 843 855 883 937 663 433 171 87 3 3 4 7 1 1 6 6 6 7 7 6 5 4 5 4 3 3 4 4 6 8 9 7 10 3 6 2 2 2 4
107 405 40 563 776 940 755 673 514 277 223 94 18 2 2 6 1 1 3 6 5 4 9 13 8 8 7 5 2 2 1 0 0 0 0 0 0 0 0 0 0 0 0 0
82 618 417 449 1134 811 634 439 333 116 10 2 1 5 4 7 3 3 6 6 6 9 10 14 12 12 14 14 9 2 0 0 0 0 0 0 0 0 0 0 0 0 0 0
308 521 671 323 259 111 286 178 148 127 42 0 3 8 4 10 7 3 5 6 6 12 16 18 19 4 6 7 9 1 0 0 0 0 0 0 0 0 0 0 0 0 0 0
132 5 165 12 253 435 308 183 148 130 85 23 6 2 8 7 5 6 9 11 12 23 16 3 12 15 15 14 3 0 0 0 0 0 0 0 0 0 0 0 0 0 0 0
0 21 70 0 534 517 485 262 77 73 91 20 10 16 12 20 7 11 11 12 3 3 1 0 0 0 0 0 0 0 0 0 0 2 1 1 4 2 0 0 0 0 0 0
12 0 13 0 100 626 621 548 226 68 94 33 14 12 7 6 4 0 0 0 0 0 0 7 4 0 0 2 4 12 3 4 1 0 0 2 5 4 4 11 20 0 0 0
77 88 271 643 468 666 646 373 187 52 28 37 41 18 14 4 0 0 0 0 0 3 61 60 58 72 56 77 61 5 0 0 0 7 11 0 0 3 5 0 13 0 0 0
77 197 370 708 867 651 452 298 200 54 21 11 9 0 0 0 0 0 0 7 30 101 82 75 53 61 84 64 78 41 5 7 11 6 0 1 8 3 5 1 4 0 0 0
166 173 234 720 946 740 526 316 146 104 33 0 0 0 0 0 0 0 0 25 59 134 165 136 35 112 192 57 44 14 31 26 15 10 5 0 0 0 4 6 4 0 0 0
162 96 195 985 1037 799 488 143 148 28 6 0 0 0 0 0 0 0 39 148 121 137 167 101 215 208 188 42 0 5 30 3 0 24 7 2 3 6 8 0 0 0 0 0
140 408 942 1003 840 649 430 160 6 0 1 0 0 0 1 2 2 65 92 78 79 90 121 42 184 74 28 1 0 0 4 15 0 32 13 14 13 18 21 0 0 0 0 0
971 925 856 723 392 165 0 0 0 0 0 2 17 26 36 43 44 76 114 54 2 0 14 0 0 0 0 0 0 0 0 0 0 6 26 16 27 9 6 0 0 0 0 0
869 551 263 67 1 0 0 0 0 6 2 17 28 25 32 69 117 54 21 0 0 0 0 0 0 0 0 0 0 0 0 0 0 0 1 5 1 5 4 2 0 0 0 0
162 40 6 2 2 0 1 0 0 0 0 0 0 9 43 54 2 0 0 0 0 0 0 0 0 0 0 0 0 0 0 0 0 0 3 1 6 6 3 0 0 0 0 0
4 3 1 1 1 2 0 0 0 0 0 1 18 65 34 73 7 0 0 0 0 0 0 0 0 0 0 0 0 1 0 0 0 0 2 3 0 0 1 0 0 0 0 0
0 0 1 3 2 1 3 1 0 1 16 28 53 3 0 0 0 0 0 0 0 0 0 0 0 0 0 0 1 0 0 0 0 0 0 0 0 0 0 0 0 0 0 0
8 10 12 24 27 8 2 7 16 41 79 78 12 0 0 0 0 0 0 0 0 0 4 2 0 0 0 0 0 0 0 0 0 0 0 0 0 0 0 0 0 0 0 0